Change the Weather History Date:

Thursday, May 9, 2013

  Actual Average Record
Temperature  
Mean Temperature 70 °F 68 °F  
Max Temperature 82 °F 80 °F 93 °F (1936)
Min Temperature 57 °F 57 °F 38 °F (1923)
Degree Days  
Heating Degree Days 0 1  
Month to date heating degree days 55 14  
Since 1 July heating degree days 3026 2988  
Cooling Degree Days 5 5  
Month to date cooling degree days 12 35  
Year to date cooling degree days 71 107  
Growing Degree Days 20 (Base 50)    
Moisture  
Dew Point 59 °F    
Average Humidity 68    
Maximum Humidity 93    
Minimum Humidity 43    
Precipitation  
Precipitation 0.00 in 0.17 in 1.10 in (1909)
Month to date precipitation 5.08 1.56  
Year to date precipitation 27.60 20.82  
Snow  
Snow 0.00 in - - ()
Month to date snowfall 0.0  
Since 1 July snowfall 0.7  
Snow Depth 0.00 in    
Sea Level Pressure  
Sea Level Pressure 30.07 in    
Wind  
Wind Speed 5 mph (SSE)    
Max Wind Speed 14 mph    
Max Gust Speed 16 mph    
Visibility 10 miles    
Events Fog    
T = Trace of Precipitation, MM = Missing Value Source: NWS Daily Summary

Daily Weather History Graph

Daily Weather History Graph

Search for Another Location

Airport or City:

Trip Planner

Search our weather history database for the weather conditions in past years. The results will help you decide how hot, cold, wet, or windy it might be!

Date:

Astronomy

May. 09, 2013 Rise Set
Actual Time 5:49 AM CDT 7:38 PM CDT
Civil Twilight 5:21 AM CDT 8:06 PM CDT
Nautical Twilight 4:48 AM CDT 8:39 PM CDT
Astronomical Twilight 4:12 AM CDT 9:14 PM CDT
Moon 5:31 AM CDT (5/9) 7:33 PM CDT (5/9)
Length of Visible Light 14h 44m
Length of Day
13h 49m
Waning Crescent, 0% of the Moon is Illuminated
May 9
Waning Crescent
May 9
New
May 17
First Quarter
May 24
Full
May 31
Last Quarter

Hourly Weather History & Observations

Time (CDT) Temp. Heat Index Dew Point Humidity Pressure Visibility Wind Dir Wind Speed Gust Speed Precip Events Conditions
12:53 AM 61.0 °F - 57.9 °F 90% 30.04 in 10.0 mi ESE 3.5 mph - N/A   Clear
1:53 AM 59.0 °F - 57.0 °F 93% 30.04 in 10.0 mi East 4.6 mph - N/A   Clear
2:53 AM 57.9 °F - 55.9 °F 93% 30.05 in 9.0 mi East 4.6 mph - N/A   Clear
3:53 AM 57.9 °F - 55.9 °F 93% 30.06 in 9.0 mi Calm Calm - N/A   Clear
4:53 AM 57.9 °F - 55.9 °F 93% 30.06 in 8.0 mi East 3.5 mph - N/A   Clear
5:53 AM 57.0 °F - 55.0 °F 93% 30.07 in 7.0 mi ESE 3.5 mph - N/A Fog Shallow Fog
6:53 AM 57.9 °F - 55.9 °F 93% 30.09 in 7.0 mi Calm Calm - N/A   Mostly Cloudy
7:53 AM 62.1 °F - 57.9 °F 86% 30.11 in 10.0 mi Calm Calm - N/A   Mostly Cloudy
8:53 AM 66.9 °F - 60.1 °F 79% 30.11 in 10.0 mi SE 3.5 mph - N/A   Mostly Cloudy
9:53 AM 73.0 °F - 61.0 °F 66% 30.12 in 10.0 mi Calm Calm - N/A   Scattered Clouds
10:53 AM 77.0 °F - 61.0 °F 58% 30.12 in 10.0 mi SSW 5.8 mph - N/A   Scattered Clouds
11:53 AM 78.8 °F - 59.0 °F 51% 30.13 in 10.0 mi SSW 8.1 mph - N/A   Scattered Clouds
12:53 PM 80.1 °F 80.7 °F 59.0 °F 48% 30.11 in 10.0 mi SSW 4.6 mph - N/A   Scattered Clouds
1:53 PM 80.1 °F 80.7 °F 59.0 °F 48% 30.09 in 10.0 mi SW 6.9 mph - N/A   Mostly Cloudy
2:53 PM 80.6 °F 81.1 °F 59.0 °F 48% 30.07 in 10.0 mi South 10.4 mph - N/A   Scattered Clouds
3:53 PM 82.0 °F 82.0 °F 57.9 °F 44% 30.04 in 10.0 mi South 8.1 mph - N/A   Mostly Cloudy
4:53 PM 80.1 °F 80.6 °F 57.9 °F 47% 30.01 in 10.0 mi SSW 9.2 mph - N/A   Scattered Clouds
5:53 PM 80.1 °F 80.7 °F 59.0 °F 48% 30.01 in 10.0 mi SSW 9.2 mph - N/A   Scattered Clouds
6:53 PM 77.0 °F - 60.1 °F 56% 30.01 in 10.0 mi SSW 4.6 mph - N/A   Scattered Clouds
7:53 PM 73.0 °F - 59.0 °F 61% 30.04 in 10.0 mi SSW 6.9 mph - N/A   Scattered Clouds
8:53 PM 73.4 °F - 60.8 °F 65% 30.06 in 10.0 mi South 3.5 mph - N/A   Overcast
9:53 PM 71.1 °F - 61.0 °F 70% 30.05 in 10.0 mi South 4.6 mph - N/A   Scattered Clouds
10:53 PM 66.9 °F - 60.1 °F 79% 30.04 in 10.0 mi SE 5.8 mph - N/A   Partly Cloudy
11:53 PM 66.2 °F - 60.8 °F 83% 30.06 in 10.0 mi SE 5.8 mph - N/A   Mostly Cloudy